Time,TemperatureF,DewpointF,PressureIn,WindDirection,WindDirectionDegrees,WindSpeedMPH,WindSpeedGustMPH,Humidity,HourlyPrecipIn,Conditions,Clouds,dailyrainin,SoftwareType,DateUTC
2013-03-15 00:00:00,31.3,20.5,30.06,WSW,243,0.0,2.0,64,0.00,,,0.01,Wunderground v.1.12,2013-03-15 04:00:00,
2013-03-15 00:02:00,31.3,20.5,30.06,WSW,243,2.0,5.0,64,0.00,,,0.01,Wunderground v.1.12,2013-03-15 04:02:00,
2013-03-15 00:04:00,31.2,20.4,30.06,WSW,243,2.0,5.0,64,0.00,,,0.01,Wunderground v.1.12,2013-03-15 04:04:00,
2013-03-15 00:09:00,31.2,20.8,30.06,WSW,243,2.0,2.0,65,0.00,,,0.01,Wunderground v.1.12,2013-03-15 04:09:00,
2013-03-15 00:14:00,31.0,20.6,30.05,WSW,243,1.0,1.0,65,0.00,,,0.01,Wunderground v.1.12,2013-03-15 04:14:00,
2013-03-15 00:20:00,30.7,20.3,30.05,WSW,243,0.0,1.0,65,0.00,,,0.01,Wunderground v.1.12,2013-03-15 04:20:00,
2013-03-15 00:27:00,30.6,20.2,30.05,WSW,243,0.0,4.0,65,0.00,,,0.01,Wunderground v.1.12,2013-03-15 04:27:00,
2013-03-15 00:34:00,30.4,20.4,30.05,WSW,243,0.0,2.0,66,0.00,,,0.01,Wunderground v.1.12,2013-03-15 04:34:00,
2013-03-15 00:40:00,30.4,20.4,30.05,WSW,243,2.0,2.0,66,0.00,,,0.01,Wunderground v.1.12,2013-03-15 04:40:00,
2013-03-15 00:45:00,30.4,20.4,30.05,WSW,243,1.0,2.0,66,0.00,,,0.01,Wunderground v.1.12,2013-03-15 04:45:00,
2013-03-15 00:50:00,30.4,20.4,30.05,WSW,243,2.0,2.0,66,0.00,,,0.01,Wunderground v.1.12,2013-03-15 04:50:00,
2013-03-15 00:56:00,30.4,20.7,30.05,WSW,243,0.0,2.0,67,0.00,,,0.01,Wunderground v.1.12,2013-03-15 04:56:00,
2013-03-15 01:02:00,30.4,20.7,30.04,WSW,243,2.0,2.0,67,0.00,,,0.01,Wunderground v.1.12,2013-03-15 05:02:00,
2013-03-15 01:07:00,30.6,20.9,30.04,WSW,243,4.0,4.0,67,0.00,,,0.01,Wunderground v.1.12,2013-03-15 05:07:00,
2013-03-15 01:14:00,30.9,21.2,30.04,WSW,241,1.0,5.0,67,0.00,,,0.01,Wunderground v.1.12,2013-03-15 05:14:00,
2013-03-15 01:20:00,31.2,21.5,30.04,WSW,257,2.0,3.0,67,0.00,,,0.01,Wunderground v.1.12,2013-03-15 05:20:00,
2013-03-15 01:26:00,31.3,21.3,30.04,WSW,256,2.0,4.0,66,0.00,,,0.01,Wunderground v.1.12,2013-03-15 05:26:00,
2013-03-15 01:32:00,31.6,21.5,30.04,WSW,256,4.0,6.0,66,0.00,,,0.01,Wunderground v.1.12,2013-03-15 05:32:00,
2013-03-15 01:39:00,31.8,21.4,30.04,WSW,257,4.0,4.0,65,0.00,,,0.01,Wunderground v.1.12,2013-03-15 05:39:00,
2013-03-15 01:44:00,32.1,21.3,30.04,WSW,257,5.0,5.0,64,0.00,,,0.01,Wunderground v.1.12,2013-03-15 05:44:00,
2013-03-15 01:50:00,32.4,21.2,30.04,WSW,250,4.0,4.0,63,0.00,,,0.01,Wunderground v.1.12,2013-03-15 05:50:00,
2013-03-15 01:56:00,32.7,20.7,30.04,WSW,250,5.0,5.0,61,0.00,,,0.01,Wunderground v.1.12,2013-03-15 05:56:00,
2013-03-15 02:01:00,32.8,20.4,30.02,West,266,5.0,5.0,60,0.00,,,0.01,Wunderground v.1.12,2013-03-15 06:01:00,
2013-03-15 02:06:00,33.1,19.9,30.02,WNW,283,5.0,7.0,58,0.00,,,0.01,Wunderground v.1.12,2013-03-15 06:06:00,
2013-03-15 02:11:00,33.2,19.6,30.02,West,278,5.0,6.0,57,0.00,,,0.01,Wunderground v.1.12,2013-03-15 06:11:00,
2013-03-15 02:16:00,33.4,19.4,30.02,WSW,257,5.0,9.0,56,0.00,,,0.01,Wunderground v.1.12,2013-03-15 06:16:00,
2013-03-15 02:22:00,33.5,19.0,30.02,West,271,4.0,10.0,55,0.00,,,0.01,Wunderground v.1.12,2013-03-15 06:22:00,
2013-03-15 02:27:00,33.7,19.2,30.02,West,277,7.0,7.0,55,0.00,,,0.01,Wunderground v.1.12,2013-03-15 06:27:00,
2013-03-15 02:32:00,33.7,19.2,30.02,West,273,3.0,6.0,55,0.00,,,0.01,Wunderground v.1.12,2013-03-15 06:32:00,
2013-03-15 02:37:00,33.7,19.2,30.02,WSW,256,2.0,6.0,55,0.00,,,0.01,Wunderground v.1.12,2013-03-15 06:37:00,
2013-03-15 02:42:00,33.8,19.3,30.01,WSW,250,5.0,6.0,55,0.00,,,0.01,Wunderground v.1.12,2013-03-15 06:42:00,
2013-03-15 02:47:00,33.8,19.3,30.01,WSW,254,2.0,8.0,55,0.00,,,0.01,Wunderground v.1.12,2013-03-15 06:47:00,
2013-03-15 02:52:00,33.8,19.7,30.01,WSW,243,6.0,8.0,56,0.00,,,0.01,Wunderground v.1.12,2013-03-15 06:52:00,
2013-03-15 02:57:00,33.8,19.7,30.00,West,277,6.0,9.0,56,0.00,,,0.01,Wunderground v.1.12,2013-03-15 06:57:00,
2013-03-15 03:02:00,34.0,19.9,30.00,West,260,4.0,7.0,56,0.00,,,0.01,Wunderground v.1.12,2013-03-15 07:02:00,
2013-03-15 03:07:00,34.0,20.3,30.00,WSW,248,4.0,7.0,57,0.00,,,0.01,Wunderground v.1.12,2013-03-15 07:07:00,
2013-03-15 03:12:00,34.0,20.8,30.00,WSW,254,2.0,9.0,58,0.00,,,0.01,Wunderground v.1.12,2013-03-15 07:12:00,
2013-03-15 03:19:00,34.1,20.9,30.00,WSW,248,2.0,7.0,58,0.00,,,0.01,Wunderground v.1.12,2013-03-15 07:19:00,
2013-03-15 03:24:00,34.1,21.3,30.00,SW,234,1.0,8.0,59,0.00,,,0.01,Wunderground v.1.12,2013-03-15 07:24:00,
2013-03-15 03:29:00,34.0,21.2,30.00,WSW,253,4.0,8.0,59,0.00,,,0.01,Wunderground v.1.12,2013-03-15 07:29:00,
2013-03-15 03:34:00,34.0,21.6,30.00,WSW,251,5.0,7.0,60,0.00,,,0.01,Wunderground v.1.12,2013-03-15 07:34:00,
2013-03-15 03:39:00,34.0,21.6,30.00,WSW,254,6.0,7.0,60,0.00,,,0.01,Wunderground v.1.12,2013-03-15 07:39:00,
2013-03-15 03:44:00,33.8,21.4,29.98,WSW,248,5.0,9.0,60,0.00,,,0.01,Wunderground v.1.12,2013-03-15 07:44:00,
2013-03-15 03:49:00,33.8,21.8,29.98,WSW,243,4.0,7.0,61,0.00,,,0.01,Wunderground v.1.12,2013-03-15 07:49:00,
2013-03-15 03:55:00,33.7,22.1,29.98,SW,230,5.0,5.0,62,0.00,,,0.01,Wunderground v.1.12,2013-03-15 07:55:00,
2013-03-15 04:00:00,33.5,22.2,29.98,WSW,243,7.0,7.0,63,0.00,,,0.01,Wunderground v.1.12,2013-03-15 08:00:00,
2013-03-15 04:05:00,33.5,22.6,29.98,SW,233,2.0,4.0,64,0.00,,,0.01,Wunderground v.1.12,2013-03-15 08:05:00,
2013-03-15 04:10:00,33.5,22.6,29.98,WSW,245,6.0,6.0,64,0.00,,,0.01,Wunderground v.1.12,2013-03-15 08:10:00,
2013-03-15 04:15:00,33.4,22.9,29.97,WSW,240,5.0,5.0,65,0.00,,,0.01,Wunderground v.1.12,2013-03-15 08:15:00,
2013-03-15 04:20:00,33.4,23.3,29.97,WSW,245,5.0,7.0,66,0.00,,,0.01,Wunderground v.1.12,2013-03-15 08:20:00,
2013-03-15 04:25:00,33.4,23.6,29.97,West,262,5.0,8.0,67,0.00,,,0.01,Wunderground v.1.12,2013-03-15 08:25:00,
2013-03-15 04:30:00,33.4,23.6,29.96,WSW,241,5.0,7.0,67,0.00,,,0.01,Wunderground v.1.12,2013-03-15 08:30:00,
2013-03-15 04:35:00,33.4,24.0,29.96,West,260,6.0,6.0,68,0.00,,,0.01,Wunderground v.1.12,2013-03-15 08:35:00,
2013-03-15 04:40:00,33.2,23.8,29.96,WSW,247,4.0,5.0,68,0.00,,,0.01,Wunderground v.1.12,2013-03-15 08:40:00,
2013-03-15 04:45:00,33.2,24.1,29.95,WSW,251,2.0,5.0,69,0.00,,,0.01,Wunderground v.1.12,2013-03-15 08:45:00,
2013-03-15 04:50:00,33.1,24.4,29.95,WSW,254,6.0,6.0,70,0.00,,,0.01,Wunderground v.1.12,2013-03-15 08:50:00,
2013-03-15 04:55:00,33.1,24.4,29.95,SW,231,4.0,4.0,70,0.00,,,0.01,Wunderground v.1.12,2013-03-15 08:55:00,
2013-03-15 05:00:00,32.9,24.5,29.95,WSW,250,5.0,7.0,71,0.00,,,0.01,Wunderground v.1.12,2013-03-15 09:00:00,
2013-03-15 05:05:00,32.8,24.8,29.95,WSW,242,4.0,8.0,72,0.00,,,0.01,Wunderground v.1.12,2013-03-15 09:05:00,
2013-03-15 05:10:00,32.8,24.8,29.95,WSW,243,2.0,7.0,72,0.00,,,0.01,Wunderground v.1.12,2013-03-15 09:10:00,
2013-03-15 05:15:00,32.8,25.1,29.94,WSW,239,5.0,9.0,73,0.00,,,0.01,Wunderground v.1.12,2013-03-15 09:15:00,
2013-03-15 05:20:00,32.7,25.0,29.94,WSW,248,4.0,7.0,73,0.00,,,0.01,Wunderground v.1.12,2013-03-15 09:20:00,
2013-03-15 05:25:00,32.7,25.3,29.94,WSW,241,4.0,6.0,74,0.00,,,0.01,Wunderground v.1.12,2013-03-15 09:25:00,
2013-03-15 05:30:00,32.5,25.1,29.93,West,264,6.0,7.0,74,0.00,,,0.01,Wunderground v.1.12,2013-03-15 09:30:00,
2013-03-15 05:35:00,32.5,25.5,29.93,WSW,255,8.0,8.0,75,0.00,,,0.01,Wunderground v.1.12,2013-03-15 09:35:00,
2013-03-15 05:40:00,32.5,25.5,29.93,WSW,258,4.0,7.0,75,0.00,,,0.01,Wunderground v.1.12,2013-03-15 09:40:00,
2013-03-15 05:45:00,32.5,25.8,29.93,WSW,251,6.0,11.0,76,0.00,,,0.01,Wunderground v.1.12,2013-03-15 09:45:00,
2013-03-15 05:50:00,32.7,26.3,29.93,WSW,238,6.0,7.0,77,0.00,,,0.01,Wunderground v.1.12,2013-03-15 09:50:00,
2013-03-15 05:55:00,32.7,26.3,29.93,WSW,237,5.0,11.0,77,0.00,,,0.01,Wunderground v.1.12,2013-03-15 09:55:00,
2013-03-15 06:00:00,32.8,26.4,29.93,West,271,6.0,7.0,77,0.00,,,0.01,Wunderground v.1.12,2013-03-15 10:00:00,
2013-03-15 06:05:00,32.8,26.4,29.93,West,268,6.0,6.0,77,0.00,,,0.01,Wunderground v.1.12,2013-03-15 10:05:00,
2013-03-15 06:10:00,32.8,26.7,29.93,WSW,253,5.0,7.0,78,0.00,,,0.01,Wunderground v.1.12,2013-03-15 10:10:00,
2013-03-15 06:15:00,32.8,26.7,29.93,WSW,247,7.0,7.0,78,0.00,,,0.01,Wunderground v.1.12,2013-03-15 10:15:00,
2013-03-15 06:20:00,32.9,26.8,29.93,WSW,257,11.0,12.0,78,0.00,,,0.01,Wunderground v.1.12,2013-03-15 10:20:00,
2013-03-15 06:25:00,32.9,26.8,29.93,West,266,6.0,8.0,78,0.00,,,0.01,Wunderground v.1.12,2013-03-15 10:25:00,
2013-03-15 06:30:00,33.1,27.0,29.92,West,262,4.0,11.0,78,0.00,,,0.01,Wunderground v.1.12,2013-03-15 10:30:00,
2013-03-15 06:35:00,33.1,27.0,29.92,WSW,239,4.0,10.0,78,0.00,,,0.01,Wunderground v.1.12,2013-03-15 10:35:00,
2013-03-15 06:40:00,33.1,27.0,29.92,WSW,245,5.0,8.0,78,0.00,,,0.01,Wunderground v.1.12,2013-03-15 10:40:00,
2013-03-15 06:45:00,33.1,27.3,29.91,WSW,257,4.0,6.0,79,0.00,,,0.01,Wunderground v.1.12,2013-03-15 10:45:00,
2013-03-15 06:50:00,33.1,27.3,29.91,WSW,250,7.0,10.0,79,0.00,,,0.01,Wunderground v.1.12,2013-03-15 10:50:00,
2013-03-15 06:55:00,33.2,27.4,29.91,West,260,5.0,8.0,79,0.00,,,0.01,Wunderground v.1.12,2013-03-15 10:55:00,
2013-03-15 07:00:00,33.2,27.4,29.91,WSW,254,2.0,8.0,79,0.00,,,0.01,Wunderground v.1.12,2013-03-15 11:00:00,
2013-03-15 07:05:00,33.2,27.4,29.91,WSW,255,2.0,6.0,79,0.00,,,0.01,Wunderground v.1.12,2013-03-15 11:05:00,
2013-03-15 07:10:00,33.2,27.7,29.91,West,268,5.0,8.0,80,0.00,,,0.01,Wunderground v.1.12,2013-03-15 11:10:00,
2013-03-15 07:15:00,33.2,27.7,29.90,SW,231,7.0,9.0,80,0.00,,,0.01,Wunderground v.1.12,2013-03-15 11:15:00,
2013-03-15 07:20:00,33.4,27.9,29.90,WSW,244,2.0,7.0,80,0.00,,,0.01,Wunderground v.1.12,2013-03-15 11:20:00,
2013-03-15 07:25:00,33.4,27.9,29.90,WSW,250,6.0,9.0,80,0.00,,,0.01,Wunderground v.1.12,2013-03-15 11:25:00,
2013-03-15 07:30:00,33.4,27.9,29.89,WSW,239,5.0,10.0,80,0.00,,,0.01,Wunderground v.1.12,2013-03-15 11:30:00,
2013-03-15 07:35:00,33.4,27.9,29.89,SW,231,6.0,8.0,80,0.00,,,0.01,Wunderground v.1.12,2013-03-15 11:35:00,
2013-03-15 07:41:00,33.5,28.3,29.89,WSW,243,5.0,8.0,81,0.00,,,0.01,Wunderground v.1.12,2013-03-15 11:41:00,
2013-03-15 07:46:00,33.5,28.3,29.89,West,262,4.0,7.0,81,0.00,,,0.01,Wunderground v.1.12,2013-03-15 11:46:00,
2013-03-15 07:51:00,33.5,28.3,29.89,WSW,256,6.0,8.0,81,0.00,,,0.01,Wunderground v.1.12,2013-03-15 11:51:00,
2013-03-15 07:57:00,33.7,28.5,29.89,WSW,245,4.0,8.0,81,0.00,,,0.01,Wunderground v.1.12,2013-03-15 11:57:00,
2013-03-15 08:02:00,33.7,28.5,29.89,West,260,6.0,7.0,81,0.00,,,0.01,Wunderground v.1.12,2013-03-15 12:02:00,
2013-03-15 08:07:00,33.7,28.5,29.89,West,264,10.0,10.0,81,0.00,,,0.01,Wunderground v.1.12,2013-03-15 12:07:00,
2013-03-15 08:12:00,33.8,28.6,29.89,WNW,282,8.0,8.0,81,0.00,,,0.01,Wunderground v.1.12,2013-03-15 12:12:00,
2013-03-15 08:17:00,33.8,28.6,29.89,West,262,9.0,9.0,81,0.00,,,0.01,Wunderground v.1.12,2013-03-15 12:17:00,
2013-03-15 08:22:00,34.0,28.8,29.89,WSW,251,8.0,9.0,81,0.00,,,0.01,Wunderground v.1.12,2013-03-15 12:22:00,
2013-03-15 08:27:00,34.0,28.8,29.89,WSW,238,7.0,9.0,81,0.00,,,0.01,Wunderground v.1.12,2013-03-15 12:27:00,
2013-03-15 08:32:00,34.0,28.8,29.89,West,272,6.0,11.0,81,0.00,,,0.01,Wunderground v.1.12,2013-03-15 12:32:00,
2013-03-15 08:37:00,34.1,28.9,29.89,WNW,291,5.0,7.0,81,0.00,,,0.01,Wunderground v.1.12,2013-03-15 12:37:00,
2013-03-15 08:42:00,34.1,28.9,29.90,West,274,6.0,9.0,81,0.00,,,0.01,Wunderground v.1.12,2013-03-15 12:42:00,
2013-03-15 08:47:00,34.1,28.9,29.90,West,274,5.0,9.0,81,0.00,,,0.01,Wunderground v.1.12,2013-03-15 12:47:00,
2013-03-15 08:52:00,34.3,28.8,29.90,WNW,294,2.0,9.0,80,0.00,,,0.01,Wunderground v.1.12,2013-03-15 12:52:00,
2013-03-15 08:57:00,34.3,28.8,29.90,West,268,5.0,11.0,80,0.00,,,0.01,Wunderground v.1.12,2013-03-15 12:57:00,
2013-03-15 09:02:00,34.4,28.9,29.90,West,265,6.0,10.0,80,0.00,,,0.01,Wunderground v.1.12,2013-03-15 13:02:00,
2013-03-15 09:09:00,34.4,28.9,29.90,WSW,246,10.0,10.0,80,0.00,,,0.01,Wunderground v.1.12,2013-03-15 13:09:00,
2013-03-15 09:15:00,34.6,29.1,29.90,WNW,293,3.0,6.0,80,0.00,,,0.01,Wunderground v.1.12,2013-03-15 13:15:00,
2013-03-15 09:20:00,34.6,28.8,29.90,WNW,289,6.0,7.0,79,0.00,,,0.01,Wunderground v.1.12,2013-03-15 13:20:00,
2013-03-15 09:25:00,34.7,28.9,29.90,West,277,9.0,10.0,79,0.00,,,0.01,Wunderground v.1.12,2013-03-15 13:25:00,
2013-03-15 09:30:00,34.7,28.9,29.89,NW,305,8.0,8.0,79,0.00,,,0.01,Wunderground v.1.12,2013-03-15 13:30:00,
2013-03-15 09:35:00,34.7,28.9,29.89,WNW,299,11.0,11.0,79,0.00,,,0.01,Wunderground v.1.12,2013-03-15 13:35:00,
2013-03-15 09:40:00,34.7,28.9,29.89,West,275,4.0,7.0,79,0.00,,,0.01,Wunderground v.1.12,2013-03-15 13:40:00,
2013-03-15 09:45:00,34.9,29.0,29.89,WNW,287,3.0,7.0,79,0.00,,,0.01,Wunderground v.1.12,2013-03-15 13:45:00,
2013-03-15 09:50:00,34.9,29.0,29.89,West,262,9.0,9.0,79,0.00,,,0.01,Wunderground v.1.12,2013-03-15 13:50:00,
2013-03-15 09:55:00,34.9,29.0,29.89,West,270,6.0,8.0,79,0.00,,,0.01,Wunderground v.1.12,2013-03-15 13:55:00,
2013-03-15 10:00:00,34.9,29.0,29.89,West,275,6.0,9.0,79,0.00,,,0.01,Wunderground v.1.12,2013-03-15 14:00:00,
2013-03-15 10:05:00,34.9,29.0,29.89,West,267,7.0,7.0,79,0.00,,,0.01,Wunderground v.1.12,2013-03-15 14:05:00,
2013-03-15 10:10:00,35.0,29.1,29.89,WNW,295,7.0,8.0,79,0.00,,,0.01,Wunderground v.1.12,2013-03-15 14:10:00,
2013-03-15 10:15:00,35.0,29.1,29.88,West,281,6.0,11.0,79,0.00,,,0.01,Wunderground v.1.12,2013-03-15 14:15:00,
2013-03-15 10:20:00,35.0,29.1,29.88,West,275,7.0,9.0,79,0.00,,,0.01,Wunderground v.1.12,2013-03-15 14:20:00,
2013-03-15 10:25:00,35.2,29.3,29.88,West,267,6.0,12.0,79,0.00,,,0.01,Wunderground v.1.12,2013-03-15 14:25:00,
2013-03-15 10:30:00,35.3,29.1,29.88,WNW,295,4.0,9.0,78,0.00,,,0.01,Wunderground v.1.12,2013-03-15 14:30:00,
2013-03-15 10:35:00,35.5,29.3,29.88,WSW,250,5.0,7.0,78,0.00,,,0.01,Wunderground v.1.12,2013-03-15 14:35:00,
2013-03-15 10:40:00,35.5,29.3,29.88,West,262,6.0,10.0,78,0.00,,,0.01,Wunderground v.1.12,2013-03-15 14:40:00,
2013-03-15 10:45:00,35.5,29.3,29.88,WSW,241,5.0,9.0,78,0.00,,,0.00,Wunderground v.1.12,2013-03-15 14:45:00,
2013-03-15 10:50:00,35.5,29.3,29.88,WNW,291,2.0,7.0,78,0.00,,,0.00,Wunderground v.1.12,2013-03-15 14:50:00,
2013-03-15 10:55:00,35.6,29.4,29.88,West,272,6.0,12.0,78,0.00,,,0.00,Wunderground v.1.12,2013-03-15 14:55:00,
2013-03-15 11:00:00,35.6,29.1,29.87,WNW,292,7.0,8.0,77,0.00,,,0.00,Wunderground v.1.12,2013-03-15 15:00:00,
2013-03-15 11:05:00,35.6,29.1,29.87,West,273,5.0,10.0,77,0.00,,,0.00,Wunderground v.1.12,2013-03-15 15:05:00,
2013-03-15 11:10:00,35.6,29.1,29.87,WNW,300,10.0,10.0,77,0.00,,,0.00,Wunderground v.1.12,2013-03-15 15:10:00,
2013-03-15 11:16:00,35.8,29.3,29.87,WNW,303,5.0,8.0,77,0.00,,,0.00,Wunderground v.1.12,2013-03-15 15:16:00,
2013-03-15 11:21:00,35.9,29.4,29.87,WNW,284,7.0,7.0,77,0.00,,,0.00,Wunderground v.1.12,2013-03-15 15:21:00,
2013-03-15 11:26:00,36.0,29.5,29.87,West,268,8.0,9.0,77,0.00,,,0.00,Wunderground v.1.12,2013-03-15 15:26:00,
2013-03-15 11:31:00,36.2,29.7,29.87,WNW,287,6.0,9.0,77,0.00,,,0.00,Wunderground v.1.12,2013-03-15 15:31:00,
2013-03-15 11:36:00,36.3,29.5,29.87,NW,306,9.0,13.0,76,0.00,,,0.00,Wunderground v.1.12,2013-03-15 15:36:00,
2013-03-15 11:41:00,36.3,29.5,29.87,NW,306,11.0,11.0,76,0.00,,,0.00,Wunderground v.1.12,2013-03-15 15:41:00,
2013-03-15 11:46:00,36.3,29.5,29.87,West,275,2.0,10.0,76,0.00,,,0.00,Wunderground v.1.12,2013-03-15 15:46:00,
2013-03-15 11:51:00,36.5,29.7,29.87,West,275,9.0,10.0,76,0.00,,,0.00,Wunderground v.1.12,2013-03-15 15:51:00,
2013-03-15 11:56:00,36.6,29.7,29.87,West,267,9.0,10.0,76,0.00,,,0.00,Wunderground v.1.12,2013-03-15 15:56:00,
2013-03-15 12:01:00,36.6,29.4,29.87,NW,313,12.0,12.0,75,0.00,,,0.00,Wunderground v.1.12,2013-03-15 16:01:00,
2013-03-15 12:06:00,36.9,29.7,29.87,NW,324,4.0,10.0,75,0.00,,,0.00,Wunderground v.1.12,2013-03-15 16:06:00,
2013-03-15 12:12:00,37.2,30.0,29.87,WNW,284,4.0,9.0,75,0.00,,,0.00,Wunderground v.1.12,2013-03-15 16:12:00,
2013-03-15 12:17:00,37.2,29.7,29.87,NW,312,6.0,7.0,74,0.00,,,0.00,Wunderground v.1.12,2013-03-15 16:17:00,
2013-03-15 12:22:00,37.3,29.8,29.87,WNW,302,7.0,12.0,74,0.00,,,0.00,Wunderground v.1.12,2013-03-15 16:22:00,
2013-03-15 12:27:00,37.3,29.8,29.87,WNW,287,7.0,10.0,74,0.00,,,0.00,Wunderground v.1.12,2013-03-15 16:27:00,
2013-03-15 12:32:00,37.5,30.0,29.87,NW,318,4.0,11.0,74,0.00,,,0.00,Wunderground v.1.12,2013-03-15 16:32:00,
2013-03-15 12:37:00,37.5,30.0,29.87,NW,305,5.0,8.0,74,0.00,,,0.00,Wunderground v.1.12,2013-03-15 16:37:00,
2013-03-15 12:42:00,37.5,30.0,29.87,West,272,6.0,10.0,74,0.00,,,0.00,Wunderground v.1.12,2013-03-15 16:42:00,
2013-03-15 12:47:00,37.3,29.8,29.87,West,275,6.0,9.0,74,0.00,,,0.00,Wunderground v.1.12,2013-03-15 16:47:00,
2013-03-15 12:52:00,37.3,29.8,29.87,NW,322,3.0,8.0,74,0.00,,,0.00,Wunderground v.1.12,2013-03-15 16:52:00,
2013-03-15 12:57:00,37.3,29.8,29.87,NW,307,10.0,13.0,74,0.00,,,0.00,Wunderground v.1.12,2013-03-15 16:57:00,
2013-03-15 13:02:00,37.5,30.0,29.87,NW,312,5.0,7.0,74,0.00,,,0.00,Wunderground v.1.12,2013-03-15 17:02:00,
2013-03-15 13:07:00,37.6,30.1,29.87,NNW,328,4.0,13.0,74,0.00,,,0.00,Wunderground v.1.12,2013-03-15 17:07:00,
2013-03-15 13:12:00,37.9,30.4,29.87,WNW,289,6.0,8.0,74,0.00,,,0.00,Wunderground v.1.12,2013-03-15 17:12:00,
2013-03-15 13:17:00,38.0,30.4,29.87,NW,310,9.0,9.0,74,0.00,,,0.00,Wunderground v.1.12,2013-03-15 17:17:00,
2013-03-15 13:22:00,38.2,30.3,29.87,NW,304,5.0,10.0,73,0.00,,,0.00,Wunderground v.1.12,2013-03-15 17:22:00,
2013-03-15 13:27:00,38.5,30.9,29.87,WSW,256,1.0,9.0,74,0.00,,,0.00,Wunderground v.1.12,2013-03-15 17:27:00,
2013-03-15 13:32:00,38.8,31.2,29.87,WNW,293,3.0,9.0,74,0.00,,,0.00,Wunderground v.1.12,2013-03-15 17:32:00,
2013-03-15 13:37:00,39.2,31.3,29.87,West,259,6.0,8.0,73,0.00,,,0.00,Wunderground v.1.12,2013-03-15 17:37:00,
2013-03-15 13:42:00,39.5,31.6,29.86,NW,306,8.0,10.0,73,0.00,,,0.00,Wunderground v.1.12,2013-03-15 17:42:00,
2013-03-15 13:47:00,39.3,30.7,29.86,WNW,283,7.0,10.0,71,0.00,,,0.00,Wunderground v.1.12,2013-03-15 17:47:00,
2013-03-15 13:52:00,39.3,31.0,29.86,West,266,1.0,8.0,72,0.00,,,0.00,Wunderground v.1.12,2013-03-15 17:52:00,
2013-03-15 13:57:00,39.2,30.9,29.86,West,271,5.0,7.0,72,0.00,,,0.00,Wunderground v.1.12,2013-03-15 17:57:00,
2013-03-15 14:02:00,39.2,30.9,29.86,WNW,301,10.0,10.0,72,0.00,,,0.00,Wunderground v.1.12,2013-03-15 18:02:00,
2013-03-15 14:07:00,39.2,30.6,29.86,West,281,4.0,9.0,71,0.00,,,0.00,Wunderground v.1.12,2013-03-15 18:07:00,
2013-03-15 14:14:00,39.2,30.6,29.86,WNW,303,2.0,8.0,71,0.00,,,0.00,Wunderground v.1.12,2013-03-15 18:14:00,
2013-03-15 14:20:00,39.2,30.6,29.86,West,273,6.0,6.0,71,0.00,,,0.00,Wunderground v.1.12,2013-03-15 18:20:00,
2013-03-15 14:25:00,39.3,31.0,29.86,West,278,0.0,5.0,72,0.00,,,0.00,Wunderground v.1.12,2013-03-15 18:25:00,
2013-03-15 14:30:00,39.5,31.2,29.85,WNW,295,4.0,4.0,72,0.00,,,0.00,Wunderground v.1.12,2013-03-15 18:30:00,
2013-03-15 14:35:00,39.6,31.0,29.85,WNW,298,5.0,5.0,71,0.00,,,0.00,Wunderground v.1.12,2013-03-15 18:35:00,
2013-03-15 14:40:00,39.8,31.5,29.85,West,275,4.0,4.0,72,0.00,,,0.00,Wunderground v.1.12,2013-03-15 18:40:00,
2013-03-15 14:45:00,39.8,31.2,29.84,West,279,4.0,4.0,71,0.00,,,0.00,Wunderground v.1.12,2013-03-15 18:45:00,
2013-03-15 14:50:00,39.6,30.6,29.84,WNW,283,3.0,4.0,70,0.00,,,0.00,Wunderground v.1.12,2013-03-15 18:50:00,
2013-03-15 14:55:00,39.8,31.2,29.84,SW,233,6.0,6.0,71,0.00,,,0.00,Wunderground v.1.12,2013-03-15 18:55:00,
2013-03-15 15:00:00,39.8,31.2,29.84,West,274,4.0,4.0,71,0.00,,,0.00,Wunderground v.1.12,2013-03-15 19:00:00,
2013-03-15 15:05:00,39.6,31.0,29.84,WNW,291,5.0,5.0,71,0.00,,,0.00,Wunderground v.1.12,2013-03-15 19:05:00,
2013-03-15 15:10:00,39.6,31.0,29.84,WNW,294,4.0,5.0,71,0.00,,,0.00,Wunderground v.1.12,2013-03-15 19:10:00,
2013-03-15 15:15:00,39.6,31.0,29.84,WNW,283,6.0,6.0,71,0.00,,,0.00,Wunderground v.1.12,2013-03-15 19:15:00,
2013-03-15 15:20:00,39.6,30.6,29.84,WNW,283,3.0,4.0,70,0.00,,,0.00,Wunderground v.1.12,2013-03-15 19:20:00,
2013-03-15 15:25:00,39.8,31.2,29.84,WNW,290,3.0,4.0,71,0.00,,,0.00,Wunderground v.1.12,2013-03-15 19:25:00,
2013-03-15 15:30:00,39.6,30.6,29.83,WNW,285,2.0,3.0,70,0.00,,,0.00,Wunderground v.1.12,2013-03-15 19:30:00,
2013-03-15 15:35:00,39.8,31.2,29.83,WSW,253,2.0,3.0,71,0.00,,,0.00,Wunderground v.1.12,2013-03-15 19:35:00,
2013-03-15 15:40:00,39.8,31.2,29.83,WNW,289,2.0,4.0,71,0.00,,,0.00,Wunderground v.1.12,2013-03-15 19:40:00,
2013-03-15 15:45:00,39.9,31.3,29.83,West,266,4.0,4.0,71,0.00,,,0.00,Wunderground v.1.12,2013-03-15 19:45:00,
2013-03-15 15:50:00,40.1,31.1,29.83,West,275,5.0,6.0,70,0.00,,,0.00,Wunderground v.1.12,2013-03-15 19:50:00,
2013-03-15 15:55:00,40.1,31.1,29.83,West,274,6.0,6.0,70,0.00,,,0.00,Wunderground v.1.12,2013-03-15 19:55:00,
2013-03-15 16:00:00,40.2,31.2,29.83,NW,310,3.0,4.0,70,0.00,,,0.00,Wunderground v.1.12,2013-03-15 20:00:00,
2013-03-15 16:05:00,40.3,30.9,29.83,NW,304,3.0,4.0,69,0.00,,,0.00,Wunderground v.1.12,2013-03-15 20:05:00,
2013-03-15 16:10:00,40.5,31.1,29.83,NW,304,5.0,5.0,69,0.00,,,0.00,Wunderground v.1.12,2013-03-15 20:10:00,
2013-03-15 16:15:00,40.5,31.1,29.83,SW,235,8.0,8.0,69,0.00,,,0.00,Wunderground v.1.12,2013-03-15 20:15:00,
2013-03-15 16:20:00,40.6,31.6,29.83,WNW,287,4.0,5.0,70,0.00,,,0.00,Wunderground v.1.12,2013-03-15 20:20:00,
2013-03-15 16:25:00,40.6,31.9,29.83,WSW,248,0.0,4.0,71,0.00,,,0.00,Wunderground v.1.12,2013-03-15 20:25:00,
2013-03-15 16:30:00,40.5,31.8,29.83,WNW,292,6.0,9.0,71,0.00,,,0.00,Wunderground v.1.12,2013-03-15 20:30:00,
2013-03-15 16:35:00,40.5,32.2,29.83,WSW,242,6.0,8.0,72,0.00,,,0.00,Wunderground v.1.12,2013-03-15 20:35:00,
2013-03-15 16:40:00,40.3,32.3,29.83,WNW,291,4.0,6.0,73,0.00,,,0.00,Wunderground v.1.12,2013-03-15 20:40:00,
2013-03-15 16:45:00,40.2,32.6,29.83,WSW,258,4.0,6.0,74,0.00,,,0.00,Wunderground v.1.12,2013-03-15 20:45:00,
2013-03-15 16:50:00,40.1,33.1,29.83,WNW,291,3.0,4.0,76,0.00,,,0.00,Wunderground v.1.12,2013-03-15 20:50:00,
2013-03-15 16:55:00,40.1,33.5,29.83,WSW,258,5.0,8.0,77,0.00,,,0.00,Wunderground v.1.12,2013-03-15 20:55:00,
2013-03-15 17:00:00,39.9,33.3,29.83,West,281,2.0,4.0,77,0.00,,,0.00,Wunderground v.1.12,2013-03-15 21:00:00,
2013-03-15 17:05:00,39.8,33.5,29.83,WNW,285,4.0,5.0,78,0.00,,,0.00,Wunderground v.1.12,2013-03-15 21:05:00,
2013-03-15 17:10:00,39.6,33.3,29.83,NW,315,6.0,8.0,78,0.00,,,0.00,Wunderground v.1.12,2013-03-15 21:10:00,
2013-03-15 17:15:00,39.5,33.2,29.84,NW,319,3.0,4.0,78,0.00,,,0.00,Wunderground v.1.12,2013-03-15 21:15:00,
2013-03-15 17:20:00,39.3,33.3,29.84,WNW,289,4.0,4.0,79,0.00,,,0.00,Wunderground v.1.12,2013-03-15 21:20:00,
2013-03-15 17:25:00,39.1,33.5,29.84,NW,313,6.0,7.0,80,0.00,,,0.00,Wunderground v.1.12,2013-03-15 21:25:00,
2013-03-15 17:30:00,38.9,33.6,29.83,WNW,293,3.0,5.0,81,0.00,,,0.00,Wunderground v.1.12,2013-03-15 21:30:00,
2013-03-15 17:35:00,38.8,33.5,29.83,WNW,296,2.0,6.0,81,0.00,,,0.00,Wunderground v.1.12,2013-03-15 21:35:00,
2013-03-15 17:40:00,38.6,33.6,29.83,NW,309,2.0,5.0,82,0.00,,,0.00,Wunderground v.1.12,2013-03-15 21:40:00,
2013-03-15 17:46:00,38.5,33.5,29.84,NW,307,3.0,4.0,82,0.00,,,0.00,Wunderground v.1.12,2013-03-15 21:46:00,
2013-03-15 17:51:00,38.3,33.6,29.84,NW,307,4.0,5.0,83,0.00,,,0.00,Wunderground v.1.12,2013-03-15 21:51:00,
2013-03-15 17:56:00,38.3,33.6,29.84,NW,309,2.0,5.0,83,0.00,,,0.00,Wunderground v.1.12,2013-03-15 21:56:00,
2013-03-15 18:01:00,38.2,33.8,29.84,NW,312,3.0,4.0,84,0.00,,,0.00,Wunderground v.1.12,2013-03-15 22:01:00,
2013-03-15 18:06:00,38.2,34.1,29.84,NW,318,3.0,3.0,85,0.00,,,0.00,Wunderground v.1.12,2013-03-15 22:06:00,
2013-03-15 18:11:00,38.0,33.9,29.84,NW,318,4.0,5.0,85,0.00,,,0.01,Wunderground v.1.12,2013-03-15 22:11:00,
2013-03-15 18:16:00,37.9,33.8,29.84,NW,318,1.0,3.0,85,0.00,,,0.01,Wunderground v.1.12,2013-03-15 22:16:00,
2013-03-15 18:21:00,37.9,33.8,29.84,NW,326,4.0,4.0,85,0.00,,,0.01,Wunderground v.1.12,2013-03-15 22:21:00,
2013-03-15 18:26:00,37.8,34.0,29.84,NNW,346,2.0,6.0,86,0.00,,,0.01,Wunderground v.1.12,2013-03-15 22:26:00,
2013-03-15 18:31:00,37.6,33.8,29.84,NNW,342,4.0,5.0,86,0.00,,,0.01,Wunderground v.1.12,2013-03-15 22:31:00,
2013-03-15 18:36:00,37.5,33.7,29.84,NNW,338,1.0,4.0,86,0.00,,,0.01,Wunderground v.1.12,2013-03-15 22:36:00,
2013-03-15 18:41:00,37.5,34.0,29.84,NNW,337,3.0,4.0,87,0.00,,,0.01,Wunderground v.1.12,2013-03-15 22:41:00,
2013-03-15 18:46:00,37.5,34.0,29.84,NW,322,4.0,7.0,87,0.00,,,0.01,Wunderground v.1.12,2013-03-15 22:46:00,
2013-03-15 18:51:00,37.3,33.8,29.84,NW,325,3.0,5.0,87,0.00,,,0.01,Wunderground v.1.12,2013-03-15 22:51:00,
2013-03-15 18:56:00,37.3,33.8,29.84,NW,324,2.0,4.0,87,0.00,,,0.01,Wunderground v.1.12,2013-03-15 22:56:00,
2013-03-15 19:01:00,37.2,34.0,29.84,NW,324,1.0,3.0,88,0.00,,,0.01,Wunderground v.1.12,2013-03-15 23:01:00,
2013-03-15 19:07:00,37.2,34.0,29.84,NNW,336,5.0,5.0,88,0.00,,,0.01,Wunderground v.1.12,2013-03-15 23:07:00,
2013-03-15 19:12:00,37.2,34.0,29.84,NNW,337,3.0,5.0,88,0.00,,,0.01,Wunderground v.1.12,2013-03-15 23:12:00,
2013-03-15 19:17:00,37.0,33.8,29.84,NNW,337,3.0,3.0,88,0.00,,,0.02,Wunderground v.1.12,2013-03-15 23:17:00,
2013-03-15 19:22:00,37.0,33.8,29.84,NNW,337,3.0,3.0,88,0.00,,,0.02,Wunderground v.1.12,2013-03-15 23:22:00,
2013-03-15 19:27:00,36.9,34.0,29.84,NNW,337,0.0,2.0,89,0.00,,,0.02,Wunderground v.1.12,2013-03-15 23:27:00,
2013-03-15 19:32:00,36.9,34.0,29.84,NNW,339,2.0,4.0,89,0.00,,,0.02,Wunderground v.1.12,2013-03-15 23:32:00,
2013-03-15 19:37:00,36.8,33.9,29.84,NNW,339,3.0,3.0,89,0.00,,,0.02,Wunderground v.1.12,2013-03-15 23:37:00,
2013-03-15 19:42:00,36.6,33.7,29.84,NNE,17,3.0,5.0,89,0.00,,,0.02,Wunderground v.1.12,2013-03-15 23:42:00,
2013-03-15 19:47:00,36.5,33.6,29.84,NNE,18,0.0,5.0,89,0.00,,,0.02,Wunderground v.1.12,2013-03-15 23:47:00,
2013-03-15 19:52:00,36.5,33.6,29.84,NNE,18,4.0,4.0,89,0.00,,,0.02,Wunderground v.1.12,2013-03-15 23:52:00,
2013-03-15 19:57:00,36.3,33.4,29.84,NNE,18,3.0,4.0,89,0.00,,,0.02,Wunderground v.1.12,2013-03-15 23:57:00,
2013-03-15 20:02:00,36.3,33.4,29.84,NNE,17,0.0,4.0,89,0.00,,,0.02,Wunderground v.1.12,2013-03-16 00:02:00,
2013-03-15 20:07:00,36.3,33.6,29.84,NNE,20,1.0,5.0,90,0.00,,,0.02,Wunderground v.1.12,2013-03-16 00:07:00,
2013-03-15 20:12:00,36.2,33.5,29.84,NNE,20,0.0,3.0,90,0.00,,,0.02,Wunderground v.1.12,2013-03-16 00:12:00,
2013-03-15 20:17:00,36.2,33.5,29.84,NNE,20,0.0,1.0,90,0.00,,,0.02,Wunderground v.1.12,2013-03-16 00:17:00,
2013-03-15 20:22:00,36.2,33.5,29.84,NNE,20,2.0,3.0,90,0.00,,,0.03,Wunderground v.1.12,2013-03-16 00:22:00,
2013-03-15 20:27:00,36.2,33.5,29.84,NNE,20,1.0,3.0,90,0.00,,,0.03,Wunderground v.1.12,2013-03-16 00:27:00,
2013-03-15 20:32:00,36.0,33.4,29.84,NNE,20,1.0,2.0,90,0.00,,,0.03,Wunderground v.1.12,2013-03-16 00:32:00,
2013-03-15 20:37:00,36.0,33.4,29.84,NNE,20,0.0,3.0,90,0.00,,,0.03,Wunderground v.1.12,2013-03-16 00:37:00,
2013-03-15 20:42:00,36.0,33.4,29.84,NNE,20,2.0,3.0,90,0.00,,,0.03,Wunderground v.1.12,2013-03-16 00:42:00,
2013-03-15 20:47:00,35.9,33.3,29.84,NNE,14,0.0,5.0,90,0.00,,,0.03,Wunderground v.1.12,2013-03-16 00:47:00,
2013-03-15 20:52:00,35.9,33.5,29.84,NNE,14,3.0,3.0,91,0.00,,,0.03,Wunderground v.1.12,2013-03-16 00:52:00,
2013-03-15 20:57:00,35.8,33.4,29.84,NNE,14,3.0,4.0,91,0.00,,,0.03,Wunderground v.1.12,2013-03-16 00:57:00,
2013-03-15 21:02:00,35.8,33.4,29.84,NNE,14,0.0,3.0,91,0.00,,,0.03,Wunderground v.1.12,2013-03-16 01:02:00,
2013-03-15 21:07:00,35.8,33.4,29.84,NNE,14,1.0,5.0,91,0.00,,,0.03,Wunderground v.1.12,2013-03-16 01:07:00,
2013-03-15 21:12:00,35.8,33.4,29.84,NNE,14,2.0,4.0,91,0.00,,,0.03,Wunderground v.1.12,2013-03-16 01:12:00,
2013-03-15 21:17:00,35.6,33.2,29.84,NNE,15,0.0,4.0,91,0.00,,,0.04,Wunderground v.1.12,2013-03-16 01:17:00,
2013-03-15 21:22:00,35.6,33.2,29.84,North,10,0.0,4.0,91,0.00,,,0.04,Wunderground v.1.12,2013-03-16 01:22:00,
2013-03-15 21:27:00,35.5,33.1,29.84,North,10,2.0,3.0,91,0.00,,,0.04,Wunderground v.1.12,2013-03-16 01:27:00,
2013-03-15 21:32:00,35.5,33.4,29.84,North,10,0.0,2.0,92,0.00,,,0.04,Wunderground v.1.12,2013-03-16 01:32:00,
2013-03-15 21:37:00,35.5,33.4,29.84,North,10,0.0,2.0,92,0.00,,,0.04,Wunderground v.1.12,2013-03-16 01:37:00,
2013-03-15 21:42:00,35.5,33.4,29.84,NNE,17,1.0,3.0,92,0.00,,,0.04,Wunderground v.1.12,2013-03-16 01:42:00,
2013-03-15 21:47:00,35.5,33.4,29.84,NNE,17,3.0,6.0,92,0.00,,,0.04,Wunderground v.1.12,2013-03-16 01:47:00,
2013-03-15 21:52:00,35.3,33.2,29.84,NNE,17,2.0,2.0,92,0.00,,,0.04,Wunderground v.1.12,2013-03-16 01:52:00,
2013-03-15 21:57:00,35.3,33.2,29.84,NNE,17,0.0,4.0,92,0.00,,,0.05,Wunderground v.1.12,2013-03-16 01:57:00,
2013-03-15 22:02:00,35.3,33.2,29.84,NNE,17,3.0,4.0,92,0.00,,,0.05,Wunderground v.1.12,2013-03-16 02:02:00,
2013-03-15 22:07:00,35.2,33.1,29.84,NNE,18,3.0,4.0,92,0.00,,,0.05,Wunderground v.1.12,2013-03-16 02:07:00,
2013-03-15 22:13:00,35.2,33.1,29.84,NNE,23,3.0,4.0,92,0.00,,,0.05,Wunderground v.1.12,2013-03-16 02:13:00,
2013-03-15 22:18:00,35.2,33.1,29.84,NNE,25,5.0,5.0,92,0.00,,,0.05,Wunderground v.1.12,2013-03-16 02:18:00,
2013-03-15 22:24:00,35.0,32.9,29.84,NNE,26,4.0,4.0,92,0.00,,,0.05,Wunderground v.1.12,2013-03-16 02:24:00,
2013-03-15 22:30:00,35.0,32.9,29.84,NNE,27,1.0,2.0,92,0.00,,,0.05,Wunderground v.1.12,2013-03-16 02:30:00,
2013-03-15 22:35:00,34.9,32.8,29.84,NNE,27,0.0,2.0,92,0.00,,,0.05,Wunderground v.1.12,2013-03-16 02:35:00,
2013-03-15 22:40:00,34.9,32.8,29.84,NNE,27,0.0,1.0,92,0.00,,,0.05,Wunderground v.1.12,2013-03-16 02:40:00,
2013-03-15 22:45:00,34.9,32.8,29.83,NNE,27,0.0,1.0,92,0.00,,,0.05,Wunderground v.1.12,2013-03-16 02:45:00,
2013-03-15 22:50:00,34.9,32.8,29.83,NNE,27,2.0,2.0,92,0.00,,,0.06,Wunderground v.1.12,2013-03-16 02:50:00,
2013-03-15 22:55:00,34.9,33.1,29.83,NNE,27,0.0,1.0,93,0.00,,,0.06,Wunderground v.1.12,2013-03-16 02:55:00,
2013-03-15 23:00:00,34.9,33.1,29.83,NNE,27,2.0,2.0,93,0.00,,,0.06,Wunderground v.1.12,2013-03-16 03:00:00,
2013-03-15 23:05:00,34.9,33.1,29.83,NNE,27,2.0,2.0,93,0.00,,,0.06,Wunderground v.1.12,2013-03-16 03:05:00,
2013-03-15 23:10:00,34.9,33.1,29.83,NNE,27,0.0,1.0,93,0.00,,,0.06,Wunderground v.1.12,2013-03-16 03:10:00,
2013-03-15 23:15:00,34.9,33.1,29.83,NNE,27,3.0,3.0,93,0.00,,,0.06,Wunderground v.1.12,2013-03-16 03:15:00,
2013-03-15 23:20:00,34.9,33.1,29.83,NNE,27,2.0,2.0,93,0.00,,,0.06,Wunderground v.1.12,2013-03-16 03:20:00,
2013-03-15 23:25:00,34.9,33.1,29.83,NNE,27,0.0,1.0,93,0.00,,,0.06,Wunderground v.1.12,2013-03-16 03:25:00,
2013-03-15 23:30:00,34.9,33.1,29.83,NNE,27,0.0,1.0,93,0.00,,,0.06,Wunderground v.1.12,2013-03-16 03:30:00,
2013-03-15 23:35:00,34.9,33.1,29.83,NNE,27,0.0,1.0,93,0.00,,,0.06,Wunderground v.1.12,2013-03-16 03:35:00,
2013-03-15 23:40:00,34.9,33.1,29.83,NNE,27,0.0,0.0,93,0.00,,,0.06,Wunderground v.1.12,2013-03-16 03:40:00,
2013-03-15 23:45:00,34.9,33.1,29.82,NNE,30,0.0,2.0,93,0.00,,,0.06,Wunderground v.1.12,2013-03-16 03:45:00,
2013-03-15 23:50:00,34.9,33.1,29.82,NNE,31,1.0,1.0,93,0.00,,,0.06,Wunderground v.1.12,2013-03-16 03:50:00,
2013-03-15 23:55:00,34.9,33.1,29.82,NNE,31,1.0,2.0,93,0.00,,,0.06,Wunderground v.1.12,2013-03-16 03:55:00,